weather.gov     
National Weather Service

Regional Weather Roundup
NWS Homepage
This page is being discontinued on March 12, 2014.
The same data is available at this site. Please update your bookmarks.
Thank you, and we apologize for the inconvenience.
Please send an email to SR-SRH.Webmaster@noaa.gov with any concerns.


Current Version
Previous Version:    01  02  03  04  05  06  07  08  09  10  11  12  13  14  15  16  17  18  19  20  21  22  23  24  25  26  
[Printable]
733
ASUS41 KAKQ 300610
RWRAKQ

REGIONAL WEATHER ROUNDUP
NATIONAL WEATHER SERVICE WAKEFIELD VA
200 AM EDT WED JUL 30 2014

Note: "fair" indicates few or no clouds below 12,000 feet with no
significant weather and/or obstructions to visibility. * = Denotes
station may not report precipitation (e.g., rain,snow,etc.),
thunder or fog.

VAZ042-051-052>054-056-300700-
NORTHERN VIRGINIA

CITY           SKY/WX    TMP DP  RH WIND       PRES   REMARKS
WASH NATIONAL  PTCLDY    65  49  56 W5        30.03F
DULLES         CLEAR     52  48  86 CALM      30.04S
FORT BELVOIR   NOT AVBL
QUANTICO       CLEAR     59  53  80 NW12      30.04F
FREDERICKSBRG* CLEAR     59  55  87 CALM      30.03S
STAFFORD*      CLEAR     53  53 100 NW3       30.08S
WARRENTON      CLEAR     53  53 100 CALM      30.04S
CULPEPER*      CLEAR    N/A N/A N/A CALM      30.05S
MANASSAS*      CLEAR     54  54 100 CALM      30.04F
LEESBURG*      CLEAR     54  54 100 CALM      30.05S
WINCHESTER     CLEAR     54  50  87 CALM      30.05S
$$

VAZ048-049-060>072-079>083-300700-
CENTRAL AND SOUTH CENTRAL VIRGINIA...AND NORTH CENTRAL NORTH CAROLINA

CITY           SKY/WX    TMP DP  RH WIND       PRES   REMARKS
RICHMOND       CLOUDY    67  52  58 N3        30.03F
CHESTERFIELD*  CLOUDY    66  46  48 CALM      30.04F
HANOVER        PTCLDY    59  53  80 CALM      30.05S
TAPPAHANNOCK*  MOCLDY    61  54  77 CALM      30.03F
CHARLOTTSVILLE CLEAR     59  54  83 CALM      30.05F
ORANGE*        CLOUDY    57  54  88 CALM      30.06S
LOUISA*        PTCLDY    55  54  94 CALM      30.03F
FARMVILLE*     CLOUDY    63  61  94 CALM      30.03S
SOUTH HILL*    CLOUDY    66  59  77 N7        30.08S
ROANOKE RAPIDS NOT AVBL
RALEIGH        PTCLDY    68  59  73 CALM      29.99F
$$

VAZ088>098-300700-
SOUTHEAST VIRGINIA

CITY           SKY/WX    TMP DP  RH WIND       PRES   REMARKS
NORFOLK        CLEAR     70  61  73 CALM      30.00F
VIRGINIA BEACH PTCLDY    63  58  83 CALM      29.99F
NORFOLK NAVAL  PTCLDY    69  60  73 NW3       30.01F
WEST POINT*    CLOUDY    69  55  60 CALM      30.03F
NEWPORT NEWS   CLOUDY    71  55  56 N3        30.01F
LANGLEY AFB    CLOUDY    68  59  72 NW5       30.00F
FORT EUSTIS    MOCLDY    70  52  52 VRB2      30.00F
WILLIAMSBURG*  PTCLDY    68  57  68 CALM      30.02F
FRANKLIN*      PTCLDY    61  61 100 NE3       30.01S
WAKEFIELD      PTCLDY    64  59  83 CALM      30.02S
$$

VAZ020-022-025-037-045-300700-
WESTERN AND SOUTHWEST VIRGINIA

CITY           SKY/WX    TMP DP  RH WIND       PRES   REMARKS
STAUNTON*      PTCLDY    54  51  89 CALM      30.09S
HOT SPRINGS VA CLEAR     49  46  87 NW3       30.14S
LYNCHBURG      PTCLDY    60  55  83 CALM      30.07F
DANVILLE       CLOUDY    68  59  73 NE7       30.04S
MARTINSVILLE   MOCLDY    58  56  93 CALM      30.08S
ROANOKE        MOCLDY    63  52  67 N3        30.09S
BLACKSBURG     CLEAR     54  54 100 CALM        N/A
DUBLIN*        PTCLDY    56  51  85 CALM      30.12S
MARION*        CLEAR     51  49  92 CALM      30.15S
HILLSVILLE*    CLEAR     55  48  76 NW5       30.13S
RICHLANDS*     PTCLDY    57  52  83 CALM      30.13S
WISE*          CLEAR     52  52 100 CALM      30.15S
ABINGDON*      CLEAR     55  52  90 CALM      30.12S
$$

MDZ021>025-VAZ099-100-300700-
SOUTHERN MARYLAND AND THE DELMARVA PENINSULA

CITY           SKY/WX    TMP DP  RH WIND       PRES   REMARKS
PATUXENT RIVER PTCLDY    61  52  72 W6        30.01S
BAY BRIDGE APT   N/A     66  54  63 NW8       30.01S
LEONARDTOWN    CLEAR     55  48  76 CALM      30.03F
DOVER          CLEAR     62  59  89 W2        29.97S
GEORGETOWN     CLEAR     59  55  87 VRB5      30.00F
EASTON         MOCLDY    63  59  87 CALM      30.04S
CAMBRIDGE      PTCLDY    59  54  82 CALM      30.00F
SALISBURY      NOT AVBL
OCEAN CITY     CLEAR     55  52  89 W5        29.99F
WALLOPS ISLAND PTCLDY    61  55  81 CALM      30.00F
ACCOMACK*        N/A     61  55  82 CALM      30.00F
$$

NCZ012>017-030>032-300700-
EASTERN NORTH CAROLINA

CITY           SKY/WX    TMP DP  RH WIND       PRES   REMARKS
ELIZABETH CITY CLEAR     67  61  81 CALM      29.99F
AHOSKIE*       MOCLDY    62  60  93 CALM      30.00S
EDENTON*       CLEAR     65  63  92 CALM      29.99F
CURRITUCK*     CLEAR     64  57  76 CALM      29.99F
KILL DEVIL HLS CLEAR     72  60  64 CALM      29.97F
MANTEO         NOT AVBL
CAPE HATTERAS  PTCLDY    74  64  71 NE6       29.97F
GOLDSBORO      CLEAR     66  65  97 E3        29.96F
WASHINGTON     CLEAR     66  63  91 CALM      29.99F
GREENVILLE     CLEAR     68  64  88 CALM      30.00F
NEW BERN       CLEAR     73  65  75 E5        29.99F
WILMINGTON     CLEAR     70  69  97 CALM      29.96F
$$

VAZ048-300700-
ELSEWHERE

CITY           SKY/WX    TMP DP  RH WIND       PRES   REMARKS
HARRISBURG PA  PTCLDY    60  53  77 N5        30.01S
BALTIMORE      PTCLDY    60  51  72 W5        30.02S
ANNAPOLIS      PTCLDY    65  52  62 W6        30.01S
ANDREWS AFB    CLEAR     60  51  71 W3        30.02F
WILMINGTON DE  CLEAR     63  56  78 CALM      30.00S
PHILADELPHIA   PTCLDY    66  53  63 N5        29.99F
WILDWOOD NJ*   CLEAR     63  55  77 NW3       29.99S
ATLANTIC CITY  MOCLDY    65  60  84 N5        29.97F
HENDERSON NC   CLOUDY    66  59  78 N5        30.02S
GREENSBORO     CLEAR     66  58  75 N6        30.03S
ROCKY MOUNT    CLEAR     63  60  90 CALM      29.99F
FAYETTEVILLE   CLEAR     67  62  84 CALM      29.97F
CHARLOTTE      PTCLDY    66  55  67 N8        30.02S
$$

VAZ100-300700-
MARINE

STATION/POSITION TIME  TEMP    WIND        PRES    WAVE   SWELL
                       AIR SEA DIR/SP/G            HT/PER HT/PER
                 (UTC) (F)     (DEG/KT/KT) (MB)    (FT/S) (FT/S)
44066 TX TWR #4  0600   71 74  250/  8/ 10 1014.7F   4/ 8   3/ 8
CAPE MAY NJ      0600   70 78  350/  4/  7 1014.6F
LEWES DE         0600   62 72  250/  5/  6 1015.0F
15NM E FENWICK I 0600   70 74              1015.2F   2/ 8
OCEAN-CITY-INLET 0600   65 70  300/  6/  7 1015.0F
WACHAPREAGUE VA  0600   63 79  290/  1/  2 1015.8F
THOMAS POINT MD  0600   66 77  310/ 11/ 12 1016.6F
GOOSES REEF MD   0600   69     330/ 12/ 14 1016.6S
COVE POINT MD    0600   65     320/  8/ 10 1016.1S
SOLOMONS ISLAND  0600      79                N/A
BISHOPS HEAD MD  0600   66 74  330/  6/  7 1015.4F
PINEY POINT MD   0600          360/  9/ 10   N/A
POTOMAC MD       0600   69     360/  8/ 10 1015.5F
CAMBRIDGE MD     0600   70 79  320/  7/  9 1015.6F
LEWISETTA VA     0600   70 77  340/  4/  5 1016.0F
RAPPAHANNOCK LGT 0600          330/ 10/ 12 1016.3F
STINGRAY PT      0600   72     350/  6/ 10 1016.8F
YORK RVR RNG VA  0600   73      10/ 11/ 13 1015.4F
YORKTOWN VA      0600   71 79  350/  6/  8 1015.9S
JAMESTOWN VA     0600   69      30/  4/  6   N/A
DOMINION TERM VA 0600   72      10/  6/  8 1016.1F
KIPTOPEKE VA     0600      81   50/  3/  4   N/A
CHES BAY BRIDGE  0600   74 75   30/  5/  7 1015.3S
CAPE HENRY VA    0600   74      10/  6/  7 1014.6F
WILLOUBY STN VA  0600          350/  9/ 10 1015.1F
S CRANEY ISL VA  0600           30/  4/  5 1015.9F
CAPE HENRY BUOY  0600      78                N/A     2/ 8
1ST LANDING BUOY 0600   74      30/  8/  8 1015.6S
CAPE CHARLES BUO 0600      76                N/A     2/ 8
OFFSHORE WE BUOY 0600      78                N/A     2/ 8
64NM E OF VA BCH 0600   74 78   30/  6/  8 1014.9F   2/ 8   2/ 8
DUCK PIER NC     0600   74 75   70/  7/  9 1014.6F
44056 DUCK FRF   0600                        N/A     2/ 7
OREGON INLET NC  0600   74 80   40/  6/  8 1015.0F
HATTERAS NC      0600   75 81   60/  5/  9 1015.2S
DIAMOND SHLS NC  0600          VRB 14/ 16  1014.3F   4/ 8   2/ 8
CAPE LOOKOUT NC  0500   78      60/ 13/ 15 1014.7F
$$




U.S. Dept. of Commerce
NOAA National Weather Service
1325 East West Highway
Silver Spring, MD 20910
E-mail: w-nws.webmaster@noaa.gov
Page last modified: May 16, 2007
NATIONAL WEATHER SERVICE: for Safety, for Work, for Fun - FOR LIFE